GLOBALSTAR M030 [-]

Last updated on Fri Dec 29 2023 00:02:56 GMT+0000 (Coordinated Universal Time)

1 25854U 99037D 23361.69997782 -.00000050 00000+0 52212-3 0 9994 2 25854 51.9878 97.7771 0005231 153.7005 206.4078 11.55086767 87934

Satellite not in orbit

GLOBALSTAR M030 [-]